Powrót do katalogu

YAOGAN-36 03A

AktywnyMilitariaVLEO
NORAD 54372·PAYLOAD·🇨🇳 China

Wystrzelony Nov 27, 2022 z Xichang Satellite Launch Center

Loading…

Następne Przeloty (najbliższe 24 godziny)

TLE

ŚwieżeSource: Space-Track

Epoka: Sep 14, 2026, 14:57 UTC

1 54372U 22160A   26257.62326645  .00012467  00000-0  33395-3 0  9994
2 54372  34.9995 109.2931 0003102  11.7329 348.3462 15.37167118211976

Śledź YAOGAN-36 03A w czasie rzeczywistym z AllMySat

Download on the App Store